Location: Bruxelles
(50.8503°N, 4.3517°E)
Time: 16:54:25
(UTC+02:00)

ISS - Visible Passes

Search period start: 17 September 2019 00:00
Search period end: 27 September 2019 00:00
Orbit: 411 x 421 km, 51.6° (Epoch: 18 September)

Date Brightness Start Highest point End Pass type
(mag) Time Alt. Az. Time Alt. Az. Time Alt. Az.
19 Sep -0.9 22:12:12 10° SW 22:12:12 10° SW 22:12:12 10° SW visible
20 Sep -2.5 21:24:05 10° SSW 21:26:17 25° S 21:26:17 25° S visible
21 Sep -2.2 20:36:11 10° S 20:38:37 19° SE 20:40:10 14° ESE visible
21 Sep -1.8 22:11:37 10° WSW 22:13:05 24° WSW 22:13:05 24° WSW visible
22 Sep -3.6 21:23:13 10° SW 21:26:28 51° SSE 21:26:46 49° SE visible
23 Sep -3.1 20:34:56 10° SW 20:38:01 36° SSE 20:40:20 15° E visible
23 Sep -2.2 22:11:16 10° W 22:13:13 32° W 22:13:13 32° W visible
24 Sep -3.9 21:22:44 10° WSW 21:26:03 83° S 21:26:40 56° E visible
24 Sep -0.4 22:59:32 10° W 22:59:34 10° W 22:59:34 10° W visible
25 Sep -3.7 20:34:13 10° WSW 20:37:31 66° SSE 20:40:02 16° E visible
25 Sep -2.1 22:10:57 10° W 22:12:55 33° W 22:12:55 33° W visible
26 Sep -3.8 21:22:21 10° W 21:25:41 78° N 21:26:13 58° ENE visible
